| time (UTC) | temp F | wind direction | speed knots | gust knots | rain 1hr in | rain 24hr in | rain mn in | humidity % | barometer mb |
| 20260507151521 | 55 | 119 | 0.9 | 3.5 | 0.01 | 0.17 | 0.15 | 84 | 1012.2 |
| 20260507150006 | 55 | 127 | 0.9 | 4.3 | 0.01 | 0.17 | 0.15 | 85 | 1011.7 |
| 20260507144510 | 55 | 141 | 0.9 | 3.5 | 0.01 | 0.18 | 0.15 | 86 | 1012.0 |
| 20260507143014 | 55 | 66 | 0.9 | 4.3 | 0.01 | 0.18 | 0.15 | 86 | 1012.1 |
| 20260507141522 | 55 | 23 | 1.7 | 4.3 | 0.00 | 0.17 | 0.14 | 89 | 1012.2 |
| 20260507140006 | 56 | 103 | 1.7 | 6.1 | 0.01 | 0.17 | 0.14 | 91 | 1012.0 |
| 20260507134508 | 57 | 53 | 0.9 | 6.1 | 0.01 | 0.17 | 0.14 | 92 | 1011.7 |
| 20260507133009 | 57 | 360 | 0.9 | 3.5 | 0.01 | 0.17 | 0.14 | 92 | 1011.6 |
| 20260507131517 | 57 | 316 | 0.9 | 3.5 | 0.02 | 0.17 | 0.14 | 93 | 1011.8 |
| 20260507130023 | 57 | 350 | 0.9 | 3.5 | 0.01 | 0.16 | 0.13 | 92 | 1011.5 |
| 20260507124503 | 57 | 32 | 0.9 | 4.3 | 0.02 | 0.16 | 0.13 | 93 | 1011.3 |
| 20260507123008 | 57 | 117 | 0.9 | 5.2 | 0.02 | 0.16 | 0.13 | 93 | 1011.5 |
| 20260507121514 | 57 | 1 | 1.7 | 4.3 | 0.02 | 0.15 | 0.12 | 92 | 1011.5 |
| 20260507120019 | 57 | 359 | 0.9 | 6.1 | 0.02 | 0.15 | 0.12 | 92 | 1011.5 |
| 20260507114522 | 57 | 20 | 0.9 | 6.1 | 0.02 | 0.14 | 0.11 | 92 | 1011.1 |
| 20260507113006 | 58 | 360 | 0.9 | 5.2 | 0.02 | 0.14 | 0.11 | 91 | 1011.4 |
| 20260507111513 | 58 | 68 | 1.7 | 5.2 | 0.02 | 0.13 | 0.10 | 91 | 1011.2 |
| 20260507110020 | 58 | 30 | 2.6 | 6.1 | 0.03 | 0.13 | 0.10 | 91 | 1011.1 |
| 20260507104521 | 59 | 47 | 1.7 | 5.2 | 0.03 | 0.12 | 0.09 | 92 | 1010.6 |
| 20260507103029 | 59 | 88 | 1.7 | 7.0 | 0.05 | 0.12 | 0.09 | 92 | 1010.6 |
| 20260507101512 | 59 | 334 | 2.6 | 6.1 | 0.05 | 0.11 | 0.08 | 92 | 1010.6 |
| 20260507100017 | 60 | 56 | 0.9 | 4.3 | 0.06 | 0.10 | 0.07 | 91 | 1010.6 |
| 20260507094518 | 61 | 345 | 0.9 | 6.1 | 0.06 | 0.09 | 0.06 | 91 | 1010.3 |
| 20260507093024 | 62 | 332 | 3.5 | 6.1 | 0.04 | 0.07 | 0.04 | 90 | 1010.3 |
| 20260507091536 | 65 | 358 | 1.7 | 5.2 | 0.03 | 0.06 | 0.03 | 90 | 1010.0 |
| 20260507090012 | 67 | 339 | 0.0 | 2.6 | 0.01 | 0.04 | 0.01 | 90 | 1009.4 |
| 20260507084510 | 67 | 1 | 0.9 | 3.5 | 0.00 | 0.03 | 0.00 | 89 | 1009.4 |
| 20260507083004 | 67 | 260 | 0.9 | 2.6 | 0.00 | 0.03 | 0.00 | 89 | 1009.2 |
| 20260507081507 | 67 | 269 | 1.7 | 2.6 | 0.00 | 0.03 | 0.00 | 88 | 1009.3 |
| 20260507080009 | 67 | 254 | 1.7 | 3.5 | 0.00 | 0.03 | 0.00 | 88 | 1009.2 |
| 20260507074514 | 67 | 321 | 0.9 | 6.1 | 0.00 | 0.03 | 0.00 | 88 | 1009.4 |
| 20260507073003 | 68 | 289 | 1.7 | 6.1 | 0.00 | 0.03 | 0.00 | 88 | 1009.4 |
| 20260507071503 | 68 | 315 | 1.7 | 7.8 | 0.00 | 0.03 | 0.00 | 87 | 1009.4 |
| 20260507070011 | 68 | 155 | 2.6 | 8.7 | 0.00 | 0.03 | 0.00 | 87 | 1009.1 |
| 20260507064510 | 68 | 258 | 3.5 | 7.0 | 0.00 | 0.03 | 0.00 | 87 | 1009.0 |
| 20260507063018 | 68 | 207 | 0.9 | 5.2 | 0.00 | 0.03 | 0.00 | 87 | 1008.7 |
| 20260507061504 | 69 | 230 | 1.7 | 7.0 | 0.00 | 0.03 | 0.00 | 85 | 1008.8 |
| 20260507060017 | 70 | 224 | 2.6 | 9.6 | 0.00 | 0.03 | 0.00 | 83 | 1009.6 |
| 20260507054512 | 70 | 288 | 1.7 | 7.8 | 0.00 | 0.03 | 0.00 | 81 | 1009.7 |
| 20260507053016 | 70 | 219 | 1.7 | 5.2 | 0.00 | 0.03 | 0.00 | 81 | 1010.0 |
| 20260507051504 | 70 | 241 | 2.6 | 7.0 | 0.00 | 0.03 | 0.00 | 80 | 1010.4 |
| 20260507050017 | 70 | 207 | 2.6 | 6.1 | 0.00 | 0.03 | 0.00 | 78 | 1010.4 |
| 20260507044508 | 70 | 266 | 0.9 | 6.1 | 0.00 | 0.03 | 0.00 | 77 | 1010.6 |
| 20260507043012 | 70 | 308 | 1.7 | 6.1 | 0.00 | 0.03 | 0.00 | 77 | 1010.3 |
| 20260507041519 | 70 | 328 | 2.6 | 7.8 | 0.00 | 0.03 | 0.00 | 77 | 1009.9 |
| 20260507040004 | 70 | 232 | 1.7 | 7.8 | 0.00 | 0.03 | 0.00 | 78 | 1010.1 |
| 20260507034508 | 70 | 250 | 2.6 | 7.0 | 0.00 | 0.03 | 0.03 | 78 | 1010.2 |
| 20260507033012 | 69 | 233 | 1.7 | 4.3 | 0.00 | 0.03 | 0.03 | 79 | 1010.3 |
| 20260507031516 | 69 | 283 | 1.7 | 6.1 | 0.00 | 0.03 | 0.03 | 79 | 1009.9 |
| 20260507030021 | 69 | 219 | 2.6 | 4.3 | 0.00 | 0.03 | 0.03 | 79 | 1010.2 |
| 20260507024505 | 69 | 249 | 1.7 | 6.1 | 0.00 | 0.03 | 0.03 | 79 | 1010.2 |
| 20260507023012 | 69 | 180 | 1.7 | 4.3 | 0.00 | 0.03 | 0.03 | 80 | 1010.4 |
| 20260507021514 | 69 | 211 | 0.9 | 5.2 | 0.00 | 0.03 | 0.03 | 79 | 1010.3 |
| 20260507020018 | 69 | 243 | 0.9 | 3.5 | 0.00 | 0.03 | 0.03 | 79 | 1010.4 |
| 20260507014523 | 69 | 236 | 0.0 | 3.5 | 0.00 | 0.03 | 0.03 | 78 | 1010.4 |
| 20260507013008 | 70 | 136 | 0.9 | 2.6 | 0.00 | 0.03 | 0.03 | 77 | 1010.4 |
| 20260507011516 | 70 | 197 | 0.9 | 2.6 | 0.00 | 0.03 | 0.03 | 76 | 1010.4 |
| 20260507010028 | 70 | 278 | 0.9 | 3.5 | 0.00 | 0.03 | 0.03 | 75 | 1010.4 |
| 20260507004521 | 71 | 262 | 0.0 | 3.5 | 0.00 | 0.03 | 0.03 | 74 | 1010.6 |
| 20260507003025 | 71 | 245 | 1.7 | 7.0 | 0.00 | 0.03 | 0.03 | 73 | 1010.4 |
| 20260507001514 | 72 | 244 | 2.6 | 7.0 | 0.00 | 0.03 | 0.03 | 72 | 1010.3 |
| 20260507000019 | 72 | 284 | 1.7 | 3.5 | 0.00 | 0.03 | 0.03 | 71 | 1010.1 |
| 20260506234505 | 73 | 85 | 1.7 | 5.2 | 0.00 | 0.03 | 0.03 | 69 | 1010.0 |
| 20260506233004 | 73 | 223 | 0.9 | 6.1 | 0.00 | 0.03 | 0.03 | 68 | 1010.1 |
| 20260506231505 | 73 | 245 | 0.9 | 7.8 | 0.00 | 0.03 | 0.03 | 68 | 1009.9 |
| 20260506230004 | 74 | 323 | 1.7 | 7.0 | 0.00 | 0.03 | 0.03 | 67 | 1009.8 |
| 20260506224503 | 74 | 308 | 1.7 | 4.3 | 0.00 | 0.03 | 0.03 | 67 | 1009.7 |
| 20260506223004 | 74 | 198 | 0.9 | 4.3 | 0.00 | 0.03 | 0.03 | 67 | 1009.8 |
| 20260506221505 | 74 | 236 | 1.7 | 6.1 | 0.00 | 0.03 | 0.03 | 67 | 1009.9 |
| 20260506220004 | 74 | 211 | 1.7 | 7.8 | 0.00 | 0.03 | 0.03 | 66 | 1010.1 |
| 20260506214507 | 74 | 243 | 1.7 | 7.0 | 0.00 | 0.03 | 0.03 | 66 | 1010.0 |
| 20260506213004 | 74 | 312 | 3.5 | 7.0 | 0.00 | 0.03 | 0.03 | 66 | 1009.8 |
| 20260506211505 | 74 | 100 | 1.7 | 10.4 | 0.00 | 0.03 | 0.03 | 66 | 1010.1 |
| 20260506210006 | 74 | 248 | 1.7 | 12.2 | 0.00 | 0.03 | 0.03 | 65 | 1010.0 |
| 20260506204509 | 74 | 279 | 3.5 | 7.8 | 0.00 | 0.03 | 0.03 | 65 | 1009.9 |
| 20260506203003 | 74 | 254 | 2.6 | 9.6 | 0.00 | 0.03 | 0.03 | 65 | 1009.6 |
| 20260506201507 | 74 | 150 | 3.5 | 8.7 | 0.00 | 0.03 | 0.03 | 66 | 1009.3 |
| 20260506200010 | 74 | 227 | 1.7 | 11.3 | 0.00 | 0.03 | 0.03 | 66 | 1009.5 |
| 20260506194506 | 73 | 175 | 3.5 | 9.6 | 0.00 | 0.03 | 0.03 | 66 | 1009.9 |
| 20260506193004 | 72 | 300 | 1.7 | 9.6 | 0.00 | 0.03 | 0.03 | 68 | 1010.1 |
| 20260506191507 | 72 | 160 | 2.6 | 8.7 | 0.00 | 0.03 | 0.03 | 69 | 1010.5 |
| 20260506190010 | 71 | 161 | 0.9 | 7.0 | 0.00 | 0.03 | 0.03 | 71 | 1011.0 |
| 20260506184505 | 70 | 127 | 0.9 | 7.8 | 0.00 | 0.03 | 0.03 | 73 | 1011.4 |
| 20260506183008 | 70 | 250 | 3.5 | 9.6 | 0.00 | 0.03 | 0.03 | 74 | 1011.7 |
| 20260506181521 | 71 | 238 | 0.9 | 11.3 | 0.00 | 0.03 | 0.03 | 72 | 1011.7 |
| 20260506180010 | 72 | 225 | 2.6 | 12.2 | 0.00 | 0.03 | 0.03 | 67 | 1011.8 |
| 20260506174506 | 71 | 252 | 2.6 | 9.6 | 0.00 | 0.03 | 0.03 | 69 | 1011.6 |
| 20260506173008 | 70 | 217 | 2.6 | 7.8 | 0.00 | 0.03 | 0.03 | 71 | 1011.6 |
| 20260506171509 | 70 | 211 | 3.5 | 13.0 | 0.00 | 0.03 | 0.03 | 73 | 1011.7 |
| 20260506170006 | 68 | 260 | 1.7 | 7.0 | 0.00 | 0.03 | 0.03 | 75 | 1011.8 |
| 20260506164507 | 67 | 147 | 2.6 | 7.0 | 0.01 | 0.03 | 0.03 | 78 | 1012.4 |
| 20260506163016 | 67 | 124 | 0.9 | 5.2 | 0.02 | 0.03 | 0.03 | 81 | 1012.3 |
| 20260506161502 | 66 | 315 | 1.7 | 6.1 | 0.02 | 0.03 | 0.03 | 82 | 1012.7 |
| 20260506160004 | 66 | 175 | 0.9 | 5.2 | 0.02 | 0.03 | 0.03 | 85 | 1012.9 |
| 20260506154508 | 66 | 149 | 0.9 | 4.3 | 0.02 | 0.02 | 0.02 | 82 | 1013.1 |
| 20260506153008 | 66 | 244 | 0.9 | 5.2 | 0.01 | 0.01 | 0.01 | 80 | 1013.3 |